| time (UTC) | temp F | wind direction | speed MPH | gust MPH | rain 1hr in | rain 24hr in | rain mn in | humidity % | barometer mb |
| 20260506095521 | 64 | 238 | 6.0 | 17.0 | 0.00 | 0.00 | 0.00 | 78 | 1008.3 |
| 20260506095239 | 64 | 196 | 5.0 | 17.0 | 0.00 | 0.00 | 0.00 | 78 | 1008.3 |
| 20260506094508 | 64 | 205 | 4.0 | 13.0 | 0.00 | 0.00 | 0.00 | 78 | 1008.2 |
| 20260506094002 | 64 | 221 | 4.0 | 15.0 | 0.00 | 0.00 | 0.00 | 77 | 1008.2 |
| 20260506093456 | 65 | 146 | 4.0 | 15.0 | 0.00 | 0.00 | 0.00 | 77 | 1008.2 |
| 20260506092950 | 65 | 171 | 4.0 | 11.0 | 0.00 | 0.00 | 0.00 | 76 | 1008.3 |
| 20260506092707 | 65 | 200 | 4.0 | 11.0 | 0.00 | 0.00 | 0.00 | 76 | 1008.4 |
| 20260506092208 | 65 | 192 | 4.0 | 11.0 | 0.00 | 0.00 | 0.00 | 76 | 1008.5 |
| 20260506091434 | 65 | 195 | 5.0 | 12.0 | 0.00 | 0.00 | 0.00 | 75 | 1008.4 |
| 20260506090926 | 65 | 178 | 5.0 | 12.0 | 0.00 | 0.00 | 0.00 | 75 | 1008.4 |
| 20260506090641 | 65 | 148 | 4.0 | 12.0 | 0.00 | 0.00 | 0.00 | 75 | 1008.5 |
| 20260506085914 | 66 | 132 | 5.0 | 15.0 | 0.00 | 0.00 | 0.00 | 74 | 1008.6 |
| 20260506085635 | 66 | 148 | 6.0 | 15.0 | 0.00 | 0.00 | 0.00 | 74 | 1008.5 |
| 20260506085126 | 66 | 171 | 5.0 | 12.0 | 0.00 | 0.00 | 0.00 | 74 | 1008.6 |
| 20260506084359 | 66 | 276 | 4.0 | 11.0 | 0.00 | 0.00 | 0.00 | 74 | 1008.6 |
| 20260506083859 | 66 | 159 | 5.0 | 10.0 | 0.00 | 0.00 | 0.00 | 73 | 1008.5 |
| 20260506083401 | 66 | 245 | 4.0 | 23.0 | 0.00 | 0.00 | 0.00 | 73 | 1008.6 |
| 20260506082858 | 66 | 152 | 4.0 | 23.0 | 0.00 | 0.00 | 0.00 | 73 | 1008.6 |
| 20260506082622 | 66 | 159 | 5.0 | 12.0 | 0.00 | 0.00 | 0.00 | 72 | 1008.6 |
| 20260506082122 | 67 | 165 | 5.0 | 15.0 | 0.00 | 0.00 | 0.00 | 72 | 1008.5 |
| 20260506081401 | 67 | 175 | 5.0 | 15.0 | 0.00 | 0.00 | 0.00 | 72 | 1008.5 |
| 20260506080857 | 67 | 198 | 4.0 | 10.0 | 0.00 | 0.00 | 0.00 | 72 | 1008.6 |
| 20260506080401 | 67 | 155 | 4.0 | 10.0 | 0.00 | 0.00 | 0.00 | 71 | 1008.6 |
| 20260506073356 | 67 | 128 | 5.0 | 12.0 | 0.00 | 0.00 | 0.00 | 70 | 1008.8 |
| 20260506073115 | 67 | 195 | 5.0 | 11.0 | 0.00 | 0.00 | 0.00 | 69 | 1008.7 |
| 20260506072357 | 67 | 96 | 4.0 | 10.0 | 0.00 | 0.00 | 0.00 | 69 | 1008.8 |
| 20260506071849 | 67 | 178 | 4.0 | 10.0 | 0.00 | 0.00 | 0.00 | 69 | 1008.8 |
| 20260506071349 | 67 | 213 | 4.0 | 11.0 | 0.00 | 0.00 | 0.00 | 69 | 1008.9 |
| 20260506070850 | 67 | 226 | 4.0 | 13.0 | 0.00 | 0.00 | 0.00 | 69 | 1008.9 |
| 20260506070844 | 67 | 147 | 4.0 | 13.0 | 0.00 | 0.00 | 0.00 | 69 | 1008.9 |
| 20260506070110 | 67 | 200 | 4.0 | 10.0 | 0.00 | 0.00 | 0.00 | 68 | 1009.0 |
| 20260506062341 | 67 | 146 | 3.0 | 7.0 | 0.00 | 0.00 | 0.00 | 67 | 1009.3 |
| 20260506062335 | 67 | 174 | 4.0 | 8.0 | 0.00 | 0.00 | 0.00 | 67 | 1009.4 |
| 20260506061343 | 67 | 171 | 4.0 | 10.0 | 0.00 | 0.00 | 0.00 | 67 | 1009.4 |
| 20260506060853 | 67 | 141 | 4.0 | 10.0 | 0.00 | 0.00 | 0.00 | 67 | 1009.4 |
| 20260506060339 | 67 | 163 | 3.0 | 8.0 | 0.00 | 0.00 | 0.00 | 66 | 1009.4 |
| 20260506051339 | 67 | 149 | 3.0 | 8.0 | 0.00 | 0.00 | 0.00 | 65 | 1009.7 |
| 20260506050842 | 67 | 125 | 3.0 | 7.0 | 0.00 | 0.00 | 0.00 | 64 | 1009.7 |
| 20260506050336 | 67 | 146 | 3.0 | 7.0 | 0.00 | 0.00 | 0.00 | 64 | 1009.8 |
| 20260506044828 | 67 | 161 | 3.0 | 9.0 | 0.00 | 0.00 | 0.00 | 63 | 1009.9 |
| 20260506044555 | 67 | 160 | 3.0 | 10.0 | 0.00 | 0.00 | 0.00 | 63 | 1009.8 |
| 20260506043830 | 67 | 165 | 3.0 | 10.0 | 0.00 | 0.00 | 0.00 | 63 | 1009.9 |
| 20260506043558 | 67 | 166 | 3.0 | 9.0 | 0.00 | 0.00 | 0.00 | 63 | 1009.9 |
| 20260506042834 | 67 | 191 | 3.0 | 8.0 | 0.00 | 0.00 | 0.00 | 63 | 1009.9 |
| 20260506042331 | 67 | 201 | 3.0 | 9.0 | 0.00 | 0.00 | 0.00 | 63 | 1009.9 |
| 20260506041827 | 67 | 230 | 4.0 | 11.0 | 0.00 | 0.00 | 0.00 | 63 | 1009.9 |
| 20260506041554 | 67 | 198 | 4.0 | 11.0 | 0.00 | 0.00 | 0.00 | 63 | 1009.9 |
| 20260506040828 | 67 | 155 | 4.0 | 9.0 | 0.00 | 0.00 | 0.00 | 63 | 1009.9 |
| 20260506040549 | 67 | 147 | 3.0 | 9.0 | 0.00 | 0.00 | 0.00 | 63 | 1009.9 |
| 20260506035823 | 67 | 180 | 4.0 | 9.0 | 0.00 | 0.00 | 0.00 | 63 | 1009.8 |
| 20260506035324 | 67 | 197 | 4.0 | 9.0 | 0.00 | 0.00 | 0.00 | 63 | 1009.9 |
| 20260506034826 | 67 | 184 | 3.0 | 7.0 | 0.00 | 0.00 | 0.00 | 63 | 1009.9 |
| 20260506034325 | 67 | 150 | 4.0 | 9.0 | 0.00 | 0.00 | 0.00 | 63 | 1009.9 |
| 20260506033823 | 67 | 177 | 4.0 | 9.0 | 0.00 | 0.00 | 0.00 | 63 | 1009.9 |
| 20260506033324 | 67 | 209 | 3.0 | 9.0 | 0.00 | 0.00 | 0.00 | 63 | 1009.8 |
| 20260506032824 | 67 | 140 | 3.0 | 7.0 | 0.00 | 0.00 | 0.00 | 63 | 1009.9 |
| 20260506032324 | 67 | 164 | 3.0 | 6.0 | 0.00 | 0.00 | 0.00 | 62 | 1009.8 |
| 20260506031823 | 67 | 203 | 3.0 | 10.0 | 0.00 | 0.00 | 0.00 | 62 | 1009.8 |
| 20260506031323 | 68 | 185 | 4.0 | 10.0 | 0.00 | 0.00 | 0.00 | 62 | 1009.8 |
| 20260506031312 | 68 | 184 | 4.0 | 8.0 | 0.00 | 0.00 | 0.00 | 62 | 1009.7 |
| 20260506030323 | 68 | 158 | 4.0 | 10.0 | 0.00 | 0.00 | 0.00 | 61 | 1009.8 |
| 20260506025824 | 68 | 154 | 4.0 | 12.0 | 0.00 | 0.00 | 0.00 | 61 | 1009.8 |
| 20260506025321 | 68 | 146 | 4.0 | 12.0 | 0.00 | 0.00 | 0.00 | 61 | 1009.8 |
| 20260506024821 | 68 | 215 | 3.0 | 12.0 | 0.00 | 0.00 | 0.00 | 61 | 1009.8 |
| 20260506024544 | 68 | 148 | 3.0 | 10.0 | 0.00 | 0.00 | 0.00 | 61 | 1009.8 |
| 20260506024037 | 68 | 207 | 4.0 | 12.0 | 0.00 | 0.00 | 0.00 | 60 | 1009.8 |
| 20260506023310 | 69 | 177 | 4.0 | 12.0 | 0.00 | 0.00 | 0.00 | 60 | 1009.7 |
| 20260506022810 | 69 | 242 | 4.0 | 9.0 | 0.00 | 0.00 | 0.00 | 59 | 1009.8 |
| 20260506022301 | 69 | 177 | 4.0 | 10.0 | 0.00 | 0.00 | 0.00 | 59 | 1009.9 |
| 20260506021754 | 69 | 198 | 4.0 | 12.0 | 0.00 | 0.00 | 0.00 | 59 | 1009.9 |
| 20260506021251 | 69 | 229 | 4.0 | 12.0 | 0.00 | 0.00 | 0.00 | 59 | 1009.9 |
| 20260506021026 | 69 | 163 | 4.0 | 10.0 | 0.00 | 0.00 | 0.00 | 58 | 1009.9 |
| 20260506020306 | 69 | 157 | 5.0 | 14.0 | 0.00 | 0.00 | 0.00 | 57 | 1009.8 |
| 20260506015751 | 70 | 259 | 5.0 | 14.0 | 0.00 | 0.00 | 0.00 | 57 | 1009.8 |
| 20260506015252 | 69 | 210 | 3.0 | 9.0 | 0.00 | 0.00 | 0.00 | 57 | 1009.8 |
| 20260506014754 | 69 | 207 | 3.0 | 9.0 | 0.00 | 0.00 | 0.00 | 57 | 1009.6 |
| 20260506014250 | 69 | 158 | 4.0 | 9.0 | 0.00 | 0.00 | 0.00 | 57 | 1009.5 |
| 20260506013751 | 70 | 159 | 4.0 | 9.0 | 0.00 | 0.00 | 0.00 | 56 | 1009.5 |
| 20260506013251 | 70 | 209 | 4.0 | 9.0 | 0.00 | 0.00 | 0.00 | 56 | 1009.5 |
| 20260506012749 | 70 | 216 | 3.0 | 9.0 | 0.00 | 0.00 | 0.00 | 55 | 1009.6 |
| 20260506012510 | 70 | 216 | 4.0 | 9.0 | 0.00 | 0.00 | 0.00 | 55 | 1009.4 |
| 20260506011745 | 71 | 120 | 4.0 | 8.0 | 0.00 | 0.00 | 0.00 | 54 | 1009.3 |
| 20260506011248 | 71 | 179 | 3.0 | 8.0 | 0.00 | 0.00 | 0.00 | 54 | 1009.3 |
| 20260506010746 | 71 | 157 | 3.0 | 10.0 | 0.00 | 0.00 | 0.00 | 53 | 1009.3 |
| 20260506010249 | 72 | 154 | 5.0 | 12.0 | 0.00 | 0.00 | 0.00 | 52 | 1009.2 |
| 20260506010232 | 72 | 196 | 6.0 | 12.0 | 0.00 | 0.00 | 0.00 | 52 | 1009.1 |
| 20260506005248 | 72 | 189 | 6.0 | 16.0 | 0.00 | 0.00 | 0.00 | 51 | 1009.0 |
| 20260506004745 | 72 | 142 | 5.0 | 16.0 | 0.00 | 0.00 | 0.00 | 51 | 1009.0 |
| 20260506004243 | 72 | 134 | 5.0 | 12.0 | 0.00 | 0.00 | 0.00 | 50 | 1009.0 |
| 20260506003731 | 72 | 196 | 5.0 | 12.0 | 0.00 | 0.00 | 0.00 | 50 | 1008.9 |
| 20260506003454 | 73 | 194 | 5.0 | 12.0 | 0.00 | 0.00 | 0.00 | 49 | 1008.9 |
| 20260506002719 | 73 | 151 | 5.0 | 9.0 | 0.00 | 0.00 | 0.00 | 49 | 1008.9 |
| 20260506002213 | 73 | 153 | 5.0 | 10.0 | 0.00 | 0.00 | 0.00 | 49 | 1008.9 |
| 20260506001927 | 73 | 151 | 4.0 | 10.0 | 0.00 | 0.00 | 0.00 | 49 | 1008.8 |
| 20260506001202 | 73 | 139 | 4.0 | 9.0 | 0.00 | 0.00 | 0.00 | 49 | 1008.7 |
| 20260506000657 | 74 | 149 | 3.0 | 8.0 | 0.00 | 0.00 | 0.00 | 48 | 1008.7 |
| 20260506000155 | 74 | 153 | 3.0 | 7.0 | 0.00 | 0.00 | 0.00 | 48 | 1008.7 |
| 20260505235646 | 74 | 143 | 4.0 | 12.0 | 0.00 | 0.00 | 0.00 | 47 | 1008.6 |
| 20260505235140 | 74 | 178 | 5.0 | 12.0 | 0.00 | 0.00 | 0.00 | 47 | 1008.6 |
| 20260505234645 | 74 | 170 | 4.0 | 9.0 | 0.00 | 0.00 | 0.00 | 47 | 1008.5 |
| 20260505234127 | 75 | 119 | 3.0 | 11.0 | 0.00 | 0.00 | 0.00 | 46 | 1008.5 |
| 20260505233623 | 75 | 172 | 4.0 | 11.0 | 0.00 | 0.00 | 0.00 | 46 | 1008.4 |
| 20260505233121 | 75 | 188 | 5.0 | 11.0 | 0.00 | 0.00 | 0.00 | 46 | 1008.3 |
| 20260505232619 | 75 | 133 | 4.0 | 11.0 | 0.00 | 0.00 | 0.00 | 46 | 1008.3 |
| 20260505232120 | 75 | 146 | 4.0 | 10.0 | 0.00 | 0.00 | 0.00 | 46 | 1008.4 |
| 20260505231619 | 76 | 159 | 4.0 | 9.0 | 0.00 | 0.00 | 0.00 | 45 | 1008.4 |
| 20260505231122 | 76 | 132 | 4.0 | 11.0 | 0.00 | 0.00 | 0.00 | 45 | 1008.4 |
| 20260505230620 | 76 | 132 | 5.0 | 11.0 | 0.00 | 0.00 | 0.00 | 45 | 1008.4 |
| 20260505230120 | 77 | 173 | 4.0 | 10.0 | 0.00 | 0.00 | 0.00 | 44 | 1008.4 |
| 20260505225844 | 77 | 127 | 5.0 | 11.0 | 0.00 | 0.00 | 0.00 | 44 | 1008.4 |
| 20260505225121 | 77 | 123 | 5.0 | 11.0 | 0.00 | 0.00 | 0.00 | 43 | 1008.4 |
| 20260505224843 | 78 | 150 | 5.0 | 15.0 | 0.00 | 0.00 | 0.00 | 43 | 1008.4 |
| 20260505224119 | 78 | 209 | 5.0 | 15.0 | 0.00 | 0.00 | 0.00 | 42 | 1008.4 |
| 20260505223619 | 78 | 194 | 4.0 | 12.0 | 0.00 | 0.00 | 0.00 | 43 | 1008.4 |
| 20260505223115 | 79 | 150 | 5.0 | 10.0 | 0.00 | 0.00 | 0.00 | 44 | 1008.3 |
| 20260505222838 | 79 | 167 | 5.0 | 11.0 | 0.00 | 0.00 | 0.00 | 44 | 1008.4 |
| 20260505222113 | 79 | 191 | 5.0 | 15.0 | 0.00 | 0.00 | 0.00 | 42 | 1008.4 |
| 20260505221611 | 79 | 165 | 7.0 | 18.0 | 0.00 | 0.00 | 0.00 | 42 | 1008.5 |
| 20260505221338 | 80 | 156 | 6.0 | 18.0 | 0.00 | 0.00 | 0.00 | 41 | 1008.4 |
| 20260505220605 | 80 | 123 | 5.0 | 13.0 | 0.00 | 0.00 | 0.00 | 40 | 1008.4 |
| 20260505215553 | 80 | 189 | 5.0 | 14.0 | 0.00 | 0.00 | 0.00 | 41 | 1008.4 |
| 20260505215046 | 79 | 162 | 6.0 | 14.0 | 0.00 | 0.00 | 0.00 | 41 | 1008.4 |
| 20260505214543 | 79 | 198 | 6.0 | 18.0 | 0.00 | 0.00 | 0.00 | 40 | 1008.4 |
| 20260505214034 | 80 | 259 | 8.0 | 18.0 | 0.00 | 0.00 | 0.00 | 40 | 1008.4 |
| 20260505213528 | 81 | 246 | 8.0 | 18.0 | 0.00 | 0.00 | 0.00 | 39 | 1008.4 |
| 20260505213022 | 81 | 246 | 6.0 | 18.0 | 0.00 | 0.00 | 0.00 | 39 | 1008.3 |
| 20260505212518 | 81 | 212 | 7.0 | 21.0 | 0.00 | 0.00 | 0.00 | 40 | 1008.1 |
| 20260505212020 | 80 | 153 | 8.0 | 21.0 | 0.00 | 0.00 | 0.00 | 39 | 1008.1 |
| 20260505211517 | 81 | 215 | 7.0 | 17.0 | 0.00 | 0.00 | 0.00 | 38 | 1008.2 |
| 20260505211248 | 81 | 212 | 7.0 | 19.0 | 0.00 | 0.00 | 0.00 | 37 | 1008.2 |
| 20260505210518 | 81 | 227 | 7.0 | 19.0 | 0.00 | 0.00 | 0.00 | 37 | 1008.1 |
| 20260505210016 | 81 | 140 | 8.0 | 18.0 | 0.00 | 0.00 | 0.00 | 38 | 1008.1 |
| 20260505205515 | 81 | 124 | 9.0 | 23.0 | 0.00 | 0.00 | 0.00 | 37 | 1008.1 |
| 20260505205016 | 81 | 217 | 8.0 | 23.0 | 0.00 | 0.00 | 0.00 | 36 | 1008.2 |
| 20260505204515 | 81 | 194 | 8.0 | 19.0 | 0.00 | 0.00 | 0.00 | 36 | 1008.2 |
| 20260505204233 | 81 | 167 | 8.0 | 24.0 | 0.00 | 0.00 | 0.00 | 36 | 1008.2 |
| 20260505203515 | 82 | 227 | 7.0 | 24.0 | 0.00 | 0.00 | 0.00 | 36 | 1008.3 |
| 20260505203249 | 81 | 211 | 8.0 | 18.0 | 0.00 | 0.00 | 0.00 | 39 | 1008.2 |
| 20260505202515 | 81 | 218 | 8.0 | 18.0 | 0.00 | 0.00 | 0.00 | 36 | 1008.2 |
| 20260505202014 | 82 | 234 | 7.0 | 16.0 | 0.00 | 0.00 | 0.00 | 36 | 1008.3 |
| 20260505201516 | 82 | 223 | 8.0 | 24.0 | 0.00 | 0.00 | 0.00 | 38 | 1008.3 |
| 20260505201013 | 81 | 239 | 9.0 | 24.0 | 0.00 | 0.00 | 0.00 | 37 | 1008.3 |
| 20260505200514 | 82 | 206 | 8.0 | 19.0 | 0.00 | 0.00 | 0.00 | 36 | 1008.4 |
| 20260505200009 | 82 | 160 | 9.0 | 23.0 | 0.00 | 0.00 | 0.00 | 38 | 1008.4 |
| 20260505195510 | 81 | 228 | 8.0 | 23.0 | 0.00 | 0.00 | 0.00 | 37 | 1008.5 |
| 20260505195009 | 82 | 166 | 7.0 | 21.0 | 0.00 | 0.00 | 0.00 | 39 | 1008.5 |
| 20260505194510 | 81 | 236 | 7.0 | 21.0 | 0.00 | 0.00 | 0.00 | 39 | 1008.4 |
| 20260505194008 | 81 | 202 | 8.0 | 21.0 | 0.00 | 0.00 | 0.00 | 41 | 1008.5 |
| 20260505193510 | 82 | 203 | 9.0 | 21.0 | 0.00 | 0.00 | 0.00 | 42 | 1008.4 |
| 20260505193011 | 81 | 216 | 8.0 | 20.0 | 0.00 | 0.00 | 0.00 | 44 | 1008.6 |
| 20260505192509 | 82 | 221 | 8.0 | 18.0 | 0.00 | 0.00 | 0.00 | 39 | 1008.6 |
| 20260505192018 | 82 | 139 | 8.0 | 20.0 | 0.00 | 0.00 | 0.00 | 40 | 1008.7 |
| 20260505191738 | 81 | 263 | 6.0 | 20.0 | 0.00 | 0.00 | 0.00 | 40 | 1008.8 |
| 20260505191450 | 82 | 223 | 6.0 | 15.0 | 0.00 | 0.00 | 0.00 | 44 | 1008.8 |
| 20260505190733 | 82 | 209 | 7.0 | 23.0 | 0.00 | 0.00 | 0.00 | 41 | 1008.9 |
| 20260505190010 | 81 | 157 | 7.0 | 23.0 | 0.00 | 0.00 | 0.00 | 40 | 1008.9 |
| 20260505190000 | 81 | 244 | 7.0 | 17.0 | 0.00 | 0.00 | 0.00 | 40 | 1009.0 |
| 20260505185006 | 81 | 155 | 8.0 | 17.0 | 0.00 | 0.00 | 0.00 | 40 | 1009.0 |
| 20260505184506 | 82 | 180 | 7.0 | 18.0 | 0.00 | 0.00 | 0.00 | 39 | 1009.0 |
| 20260505184008 | 81 | 182 | 6.0 | 18.0 | 0.00 | 0.00 | 0.00 | 39 | 1009.1 |
| 20260505183508 | 82 | 159 | 6.0 | 15.0 | 0.00 | 0.00 | 0.00 | 40 | 1009.2 |
| 20260505183008 | 81 | 237 | 6.0 | 16.0 | 0.00 | 0.00 | 0.00 | 41 | 1009.2 |
| 20260505182508 | 81 | 205 | 7.0 | 16.0 | 0.00 | 0.00 | 0.00 | 39 | 1009.2 |
| 20260505182005 | 82 | 254 | 6.0 | 15.0 | 0.00 | 0.00 | 0.00 | 40 | 1009.3 |
| 20260505181509 | 81 | 211 | 6.0 | 15.0 | 0.00 | 0.00 | 0.00 | 42 | 1009.3 |
| 20260505181008 | 80 | 204 | 7.0 | 15.0 | 0.00 | 0.00 | 0.00 | 42 | 1009.4 |
| 20260505180506 | 81 | 214 | 7.0 | 15.0 | 0.00 | 0.00 | 0.00 | 44 | 1009.5 |
| 20260505180005 | 81 | 190 | 7.0 | 14.0 | 0.00 | 0.00 | 0.00 | 42 | 1009.5 |
| 20260505175509 | 80 | 125 | 8.0 | 23.0 | 0.00 | 0.00 | 0.00 | 43 | 1009.5 |
| 20260505175004 | 81 | 291 | 8.0 | 23.0 | 0.00 | 0.00 | 0.00 | 43 | 1009.6 |
| 20260505174722 | 81 | 192 | 7.0 | 15.0 | 0.00 | 0.00 | 0.00 | 43 | 1009.5 |
| 20260505174232 | 81 | 151 | 7.0 | 18.0 | 0.00 | 0.00 | 0.00 | 42 | 1009.6 |
| 20260505173504 | 80 | 157 | 7.0 | 18.0 | 0.00 | 0.00 | 0.00 | 44 | 1009.7 |
| 20260505173003 | 80 | 196 | 7.0 | 16.0 | 0.00 | 0.00 | 0.00 | 46 | 1009.6 |
| 20260505172503 | 80 | 167 | 7.0 | 16.0 | 0.00 | 0.00 | 0.00 | 43 | 1009.7 |
| 20260505172005 | 80 | 151 | 7.0 | 15.0 | 0.00 | 0.00 | 0.00 | 50 | 1009.7 |
| 20260505171501 | 80 | 164 | 6.0 | 16.0 | 0.00 | 0.00 | 0.00 | 46 | 1009.9 |
| 20260505171002 | 79 | 140 | 6.0 | 16.0 | 0.00 | 0.00 | 0.00 | 50 | 1010.1 |
| 20260505170500 | 80 | 231 | 6.0 | 14.0 | 0.00 | 0.00 | 0.00 | 47 | 1010.0 |
| 20260505170005 | 79 | 172 | 5.0 | 15.0 | 0.00 | 0.00 | 0.00 | 49 | 1010.1 |
| 20260505165457 | 80 | 183 | 5.0 | 15.0 | 0.00 | 0.00 | 0.00 | 48 | 1010.1 |
| 20260505164958 | 80 | 178 | 5.0 | 14.0 | 0.00 | 0.00 | 0.00 | 51 | 1010.2 |
| 20260505164456 | 79 | 131 | 6.0 | 12.0 | 0.00 | 0.00 | 0.00 | 49 | 1010.2 |
| 20260505163957 | 79 | 184 | 6.0 | 13.0 | 0.00 | 0.00 | 0.00 | 47 | 1010.3 |
| 20260505163457 | 80 | 136 | 6.0 | 15.0 | 0.00 | 0.00 | 0.00 | 48 | 1010.3 |
| 20260505162958 | 80 | 134 | 6.0 | 15.0 | 0.00 | 0.00 | 0.00 | 47 | 1010.3 |
| 20260505162714 | 80 | 132 | 6.0 | 15.0 | 0.00 | 0.00 | 0.00 | 46 | 1010.3 |
| 20260505162215 | 80 | 213 | 5.0 | 13.0 | 0.00 | 0.00 | 0.00 | 46 | 1010.2 |
| 20260505161723 | 80 | 206 | 5.0 | 12.0 | 0.00 | 0.00 | 0.00 | 45 | 1010.2 |
| 20260505160956 | 79 | 198 | 5.0 | 11.0 | 0.00 | 0.00 | 0.00 | 44 | 1010.2 |
| 20260505160516 | 79 | 207 | 6.0 | 16.0 | 0.00 | 0.00 | 0.00 | 45 | 1010.3 |
| 20260505152953 | 78 | 280 | 5.0 | 13.0 | 0.00 | 0.00 | 0.00 | 47 | 1010.4 |
| 20260505152447 | 78 | 247 | 5.0 | 13.0 | 0.00 | 0.00 | 0.00 | 47 | 1010.5 |
| 20260505151949 | 77 | 181 | 6.0 | 14.0 | 0.00 | 0.00 | 0.00 | 47 | 1010.5 |
| 20260505151449 | 77 | 245 | 6.0 | 14.0 | 0.00 | 0.00 | 0.00 | 46 | 1010.8 |
| 20260505150947 | 77 | 227 | 5.0 | 12.0 | 0.00 | 0.00 | 0.00 | 47 | 1010.7 |
| 20260505150445 | 76 | 215 | 5.0 | 12.0 | 0.00 | 0.00 | 0.00 | 51 | 1010.6 |
| 20260505140444 | 73 | 272 | 4.0 | 11.0 | 0.00 | 0.00 | 0.00 | 54 | 1010.8 |
| 20260505124940 | 66 | 242 | 4.0 | 11.0 | 0.00 | 0.00 | 0.00 | 62 | 1011.6 |
| 20260505124440 | 66 | 286 | 5.0 | 12.0 | 0.00 | 0.00 | 0.00 | 62 | 1011.6 |
| 20260505123933 | 65 | 205 | 5.0 | 12.0 | 0.00 | 0.00 | 0.00 | 62 | 1011.6 |
| 20260505123428 | 65 | 202 | 4.0 | 10.0 | 0.00 | 0.00 | 0.00 | 63 | 1011.5 |
| 20260505122922 | 64 | 242 | 3.0 | 10.0 | 0.00 | 0.00 | 0.00 | 64 | 1011.4 |
| 20260505122416 | 64 | 201 | 3.0 | 6.0 | 0.00 | 0.00 | 0.00 | 65 | 1011.3 |
| 20260505121910 | 63 | 216 | 3.0 | 8.0 | 0.00 | 0.00 | 0.00 | 66 | 1011.4 |
| 20260505121405 | 63 | 208 | 3.0 | 8.0 | 0.00 | 0.00 | 0.00 | 66 | 1011.4 |
| 20260505120858 | 62 | 193 | 4.0 | 10.0 | 0.00 | 0.00 | 0.00 | 67 | 1011.4 |
| 20260505120359 | 62 | 190 | 4.0 | 10.0 | 0.00 | 0.00 | 0.00 | 68 | 1011.3 |
| 20260505115843 | 61 | 188 | 4.0 | 8.0 | 0.00 | 0.00 | 0.00 | 68 | 1011.3 |
| 20260505115339 | 61 | 194 | 4.0 | 10.0 | 0.00 | 0.00 | 0.00 | 69 | 1011.3 |
| 20260505114831 | 61 | 205 | 3.0 | 10.0 | 0.00 | 0.00 | 0.00 | 69 | 1011.3 |
| 20260505114326 | 60 | 199 | 2.0 | 7.0 | 0.00 | 0.00 | 0.00 | 69 | 1011.2 |
| 20260505113819 | 61 | 139 | 2.0 | 6.0 | 0.00 | 0.00 | 0.00 | 69 | 1011.2 |
| 20260505113313 | 61 | 281 | 2.0 | 6.0 | 0.00 | 0.00 | 0.00 | 69 | 1011.1 |
| 20260505113034 | 61 | 223 | 2.0 | 6.0 | 0.00 | 0.00 | 0.00 | 69 | 1011.0 |
| 20260505112529 | 60 | 173 | 2.0 | 6.0 | 0.00 | 0.00 | 0.00 | 69 | 1011.0 |
| 20260505111755 | 60 | 187 | 3.0 | 7.0 | 0.00 | 0.00 | 0.00 | 70 | 1010.9 |
| 20260505111250 | 60 | 191 | 2.0 | 7.0 | 0.00 | 0.00 | 0.00 | 71 | 1010.9 |
| 20260505110742 | 60 | 155 | 2.0 | 5.0 | 0.00 | 0.00 | 0.00 | 71 | 1010.9 |
| 20260505110239 | 59 | 154 | 1.0 | 5.0 | 0.00 | 0.00 | 0.00 | 71 | 1010.7 |
| 20260505102148 | 58 | 216 | 1.0 | 6.0 | 0.00 | 0.00 | 0.00 | 74 | 1010.2 |
| 20260505101642 | 58 | 215 | 2.0 | 5.0 | 0.00 | 0.00 | 0.00 | 74 | 1010.2 |
| 20260505101136 | 58 | 205 | 2.0 | 7.0 | 0.00 | 0.00 | 0.00 | 74 | 1010.2 |
| 20260505100630 | 58 | 203 | 2.0 | 7.0 | 0.00 | 0.00 | 0.00 | 75 | 1010.2 |
| 20260505100355 | 58 | 191 | 2.0 | 9.0 | 0.00 | 0.00 | 0.00 | 75 | 1010.2 |